Local Weather and METAR Reports

The data for these readings is taken from the NOAA Wesbite.  Please make sure you conduct your own weather check before flying.

METAR:

EGHI 121250Z 18016G29KT 130V220 5000 RA BKN011 OVC017 10/09 Q0985


QNH (Hectopascals): 985


QNH (Inches Mercury): 29.09


TEMPERATURE (Degrees Celsius): 10°


DEW POINT TEMPERATURE (Degrees Celsius): 9°

Live Radar

Radar Data provided by FlightRadar24

Local NOTAMS

Whilst we will strive to keep local NOTAM information up to date, please make sure that you conduct your own review of local reports before flying.

Loading RSS Feed

© Hampshire Aeroplane Club 2017 – 2019